Powrót do katalogu

SL-3 R/B

AktywnyPO
NORAD 12457·ROCKET BODY·🇷🇺 Russia

Wystrzelony May 14, 1981 z Plesetsk Cosmodrome

Loading…

Następne Przeloty (najbliższe 24 godziny)

TLE

ŚwieżeSource: Space-Track

Epoka: Sep 13, 2026, 23:39 UTC

1 12457U 81043B   26256.98599393 -.00000176  00000-0 -10943-3 0  9997
2 12457  81.2683  98.1792 0068747   2.4440 357.7051 14.07674674327300

Śledź SL-3 R/B w czasie rzeczywistym z AllMySat

Download on the App Store